Regional Weather Roundup
Issued by NWS Sterling, VA

Home | Current Version | Previous Version | Text Only | Print | Product List | Glossary Off
Versions: 1 2 3 4 5 6 7 8 9 10 11 12 13 14 15 16 17 18 19 20 21 22 23 24 25 26 27 28

000
ASUS41 KLWX 281111
RWRLWX

REGIONAL WEATHER ROUNDUP
NATIONAL WEATHER SERVICE BALTIMORE MD/WASHINGTON DC
700 AM EDT FRI APR 28 2017

Note: "FAIR" indicates few or no clouds below 12,000 feet
with no significant weather and/or obstructions to visibility.
 TC=TEMPERATURE CELSIUS

 * =Non NWS site. Station does not report precipitation (e.g. rain,
    snow, etc.), thunder, or fog.

DCZ001-MDZ009-015-VAZ040>042-051-053>054-281200-
WASHINGTON METRO

CITY           SKY/WX    TMP DP  RH WIND       PRES   REMARKS
WASHINGTON NAT PTCLDY    67  61  81 W3        29.97R
DULLES         PTCLDY    58  57  97 CALM      29.97R FOG
ANDREWS AFB    CLEAR     64  60  86 SW5       29.97R
FT BELVOIR     CLEAR     60  58  93 SE3       29.97R
QUANTICO       PTCLDY    66  62  87 CALM      29.99R
COLLEGE PARK*  CLEAR     60  59  96 CALM      29.96R
LEESBURG*      CLEAR     61  61 100 CALM      29.99R
MANASSAS*        N/A     57  57 100 S5        29.98R FOG

$$

MDZ006>007-011-014-281200-
BALTIMORE METRO

CITY           SKY/WX    TMP DP  RH WIND       PRES   REMARKS
BWI AIRPORT    PTCLDY    62  61  96 NW8       29.95R
MD SCIENCE CTR   N/A     67  59  75 MISG      29.96R
MARTIN STATE   PTCLDY    61  61 100 NW3       29.97R
ANNAPOLIS      CLEAR     68  61  78 VRB3      29.95R
FORT MEADE*    CLEAR     59  57  94 CALM      29.98R

$$

MDZ012-015-019>023-281200-
MARYLAND EASTERN SHORE

CITY           SKY/WX    TMP DP  RH WIND       PRES   REMARKS
OCEAN CITY     CLOUDY    66  63  90 SW7       29.98R
SALISBURY      CLOUDY    67  66  97 SW5       29.97R
BAY BRIDGE AP* CLOUDY    64  61  88 SW3       29.96R FOG
CAMBRIDGE*     CLEAR     64  64 100 CALM      29.98R
EASTON*        PTCLDY    66  64  94 W5        30.00R

$$

MDZ017>025-281200-
SOUTHERN MARYLAND

CITY           SKY/WX    TMP DP  RH WIND       PRES   REMARKS
PATUXENT RIVER CLOUDY    67  67 100 W9        29.97R
ST INIGOES     CLOUDY    67  64  90 SW5       29.97R
LEONARDTOWN*   CLEAR     64  63  94 W5        29.99R

$$

MDZ003>005-281200-
NORTH CENTRAL MARYLAND

CITY           SKY/WX    TMP DP  RH WIND       PRES   REMARKS
FREDERICK*     CLEAR     63  63 100 S5        30.00R
HAGERSTOWN APT CLEAR     61  58  90 SW3       29.99R
WESTMINSTER*   CLEAR     63  61  94 SW3       29.98R

$$

MDZ501>502-281200-
WESTERN MARYLAND

CITY           SKY/WX    TMP DP  RH WIND       PRES   REMARKS
OAKLAND*       CLEAR     46  45  93 W5        30.05R
CUMBERLAND*    PTCLDY    59  59 100 CALM      30.05R

$$

VAZ025>031-281200-
SHENANDOAH VALLEY

CITY           SKY/WX    TMP DP  RH WIND       PRES   REMARKS
WINCHESTER*    CLEAR     59  55  88 W5        30.00R FOG
FRONT ROYAL*   CLEAR     61  59  94 CALM      29.99R
LURAY*         CLEAR     55  55 100 S3        30.01R FOG
NEW MARKET*    CLOUDY    52  51  96 CALM      30.00R VSB<1/4
STAUNTON*      CLOUDY    50  50 100 CALM      30.04R FOG
WAYNESBORO*    CLOUDY    52  52 100 CALM      30.03R VSB<1/4

$$

WVZ021-048>050-054>055-281200-
EASTERN WEST VIRGINIA PANHANDLE

CITY           SKY/WX    TMP DP  RH WIND       PRES   REMARKS
MARTINSBURG    CLEAR     56  55  97 CALM      29.97R FOG
PETERSBURG*    FOG       56  56 100 CALM      30.03R VSB<1/4

$$

VAZ036>039-050-281200-
CENTRAL FOOTHILLS

CITY           SKY/WX    TMP DP  RH WIND       PRES   REMARKS
CHARLOTTESVILL CLEAR     61  60  97 CALM      29.98R
CULPEPER*      FOG       57  57 100 CALM      29.99R VSB 1/2
ORANGE*        CLEAR     57  57 100 CALM      29.98R FOG
GORDONSVILLE*  CLEAR     57  57 100 CALM      29.98R FOG
WARRENTON*     PTCLDY    58  55  91 CALM      29.97R FOG

$$

VAZ055>057-281200-
NORTH AND CENTRAL PIEDMONT

CITY           SKY/WX    TMP DP  RH WIND       PRES   REMARKS
FREDERICKSBRG* CLEAR     65  65 100 CALM      29.97R
STAFFORD*      CLEAR     62  62 100 CALM      30.02R

$$

NCZ024-NYZ072-PAZ021-071-VAZ022-071-281200-
OTHER REGIONAL OBSERVATIONS

CITY           SKY/WX    TMP DP  RH WIND       PRES   REMARKS
NEW YORK CITY  CLOUDY    58  58 100 NE6       29.95R FOG
PHILADELPHIA   PTCLDY    65  62  90 SW6       29.94R
PITTSBURGH     MOCLDY    48  47  96 CALM      30.02R
ROANOKE        FOG       56  56 100 CALM      30.04R VSB<1/4
RICHMOND       MOCLDY    66  66 100 CALM      29.98R
RALEIGH        PTCLDY    69  67  93 CALM      30.02R

$$

ANZ530>537-281200-
MARINE OBSERVATIONS

STATION/POSITION TIME  TEMP    WIND        PRES
                       AIR SEA DIR/SP/G
                 (UTC) (F)     (DEG/KT/KT) (MB)
THOMAS PT LIGHT  1100   66 59  250/  6/  7   N/A
BALT KEY BRIDGE  1048   65     310/  8/  9 1014.1R
COVE POINT       1048   67     270/ 12/ 16 1015.3R
LEWISETTA        1048   69 65  250/  9/ 12 1014.5R
SOLOMONS ISLAND  1048   66 60  280/  3/  6   N/A
PINEY POINT      1048          310/  5/  5   N/A

$$





USA.gov is the U.S. government's official web portal to all federal, state and local government web resources and services.